FW5236 Weather Reports


time (UTC)temp
F
wind
direction
speed
knots
gust
knots
rain 1hr
in
rain 24hr
in
rain mn
in
humidity
%
barometer
mb
20260505000034 81 42 1.7 4.3 0.00 0.00 0.00 38 1010.2
20260504234531 82 42 1.7 4.3 0.00 0.00 0.00 38 1010.2
20260504233031 83 50 1.7 5.2 0.00 0.00 0.00 37 1010.2
20260504231530 83 55 0.9 3.5 0.00 0.00 0.00 37 1010.4
20260504230107 83 56 1.7 4.3 0.00 0.00 0.00 36 1010.6
20260504224531 83 49 1.7 4.3 0.00 0.00 0.00 36 1010.7
20260504223106 83 46 1.7 4.3 0.00 0.00 0.00 36 1010.8
20260504221530 83 37 1.7 5.2 0.00 0.00 0.00 35 1010.9
20260504220029 83 46 0.9 5.2 0.00 0.00 0.00 34 1011.0
20260504214531 84 44 0.9 4.3 0.00 0.00 0.00 31 1011.2
20260504213030 84 27 0.9 5.2 0.00 0.00 0.00 30 1011.3
20260504211527 84 26 0.9 3.5 0.00 0.00 0.00 30 1011.3
20260504210032 83 42 0.9 3.5 0.00 0.00 0.00 31 1011.5
20260504203031 82 45 0.9 3.5 0.00 0.00 0.00 35 1011.9
20260504201525 81 40 0.9 4.3 0.00 0.00 0.00 35 1011.9
20260504200032 81 44 0.9 4.3 0.00 0.00 0.00 36 1012.0
20260504194527 80 51 0.9 3.5 0.00 0.00 0.00 37 1012.1
20260504193031 80 51 0.9 3.5 0.00 0.00 0.00 38 1012.0
20260504191527 79 40 1.7 4.3 0.00 0.00 0.00 40 1012.2
20260504190031 78 32 0.9 6.1 0.00 0.00 0.00 39 1012.3
20260504184531 77 43 0.9 4.3 0.00 0.00 0.00 40 1012.4
20260504183031 77 45 1.7 4.3 0.00 0.00 0.00 41 1012.4
20260504181529 77 46 0.9 4.3 0.00 0.00 0.00 42 1012.4
20260504180031 77 28 0.9 4.3 0.00 0.00 0.00 42 1012.4
20260504174531 78 46 0.0 2.6 0.00 0.00 0.00 42 1012.5
20260504173103 77 41 0.0 1.7 0.00 0.00 0.00 42 1012.5
20260504110107 53 227 1.7 2.6 0.00 0.00 0.00 62 1012.1
20260504090104 57 234 2.6 4.3 0.00 0.00 0.00 58 1012.3
20260504081530 58 233 1.7 3.5 0.00 0.00 0.00 57 1012.5
20260504060107 60 228 0.0 2.6 0.00 0.00 0.00 56 1012.3
20260504050107 64 241 1.7 4.3 0.00 0.00 0.00 49 1012.1
20260504044530 64 237 1.7 3.5 0.00 0.00 0.00 46 1012.1
20260504041607 63 236 0.9 2.6 0.00 0.00 0.00 50 1011.8
20260504040037 63 165 0.0 1.7 0.00 0.00 0.00 52 1011.7
20260504033031 70 157 0.0 0.9 0.00 0.00 0.00 41 1011.3
20260504031532 72 157 0.0 0.9 0.00 0.00 0.00 40 1011.2
20260504030029 74 157 0.0 0.9 0.00 0.00 0.00 39 1011.1
20260504024532 81 157 0.0 0.9 0.00 0.00 0.00 36 1011.0
20260504021531 85 157 0.0 0.0 0.00 0.00 0.00 30 1011.1
20260504020030 88 131 0.0 0.9 0.00 0.00 0.00 27 1011.2
20260504014606 89 112 0.0 1.7 0.00 0.00 0.00 25 1011.3
20260504013032 90 128 0.0 2.6 0.00 0.00 0.00 24 1011.4
20260504011530 90 136 0.0 2.6 0.00 0.00 0.00 24 1011.5
20260504010031 90 157 0.0 2.6 0.00 0.00 0.00 24 1011.8
20260504004530 91 141 0.0 2.6 0.00 0.00 0.00 23 1011.9